SCP
0 0 0 0 0 0 0 0 0 0 0 0 0 0 0 0 0 0 0 0 0 0 0 0 0 0 0 0 0 0 0 0 0 0 0 0 0 0 0 0 0 0 0
0 0 0 0 0 0 0 0 0 0 0 0 0 0 0 0 0 0 0 0 0 0 0 0 0 0 0 0 0 0 0 0 0 0 0 0 -0 0 0 0 0 0 0
0 0 0 0 0 0 0 0 0 0 0 0 0 0 0 0 0 0 0 0 0 0 0 0 0 0 0 0 0 0 0 0 0 0 0 0 0 0 0 0 0 0 -0
0 0 0 0 0 0 0 0 0 0 0 0 0 0 0 0 0 0 0 0 0 0 0 0 0 0 0 0 0 0 0 0 0 0 0 0 0 0 0 0 0 0 -0
0 0 0 0 0 0 0 0 0 0 0 0 0 0 0 0 0 0 0 0 0 0 0 0 0 0 0 0 0 0 0 0 0 0 0 -0 0 0 0 0 0 0 0
0 0 0 0 0 0 0 0 0 0 0 0 0 0 0 0 0 0 0 0 0 0 0 0 0 0 0 0 0 0 0 0 0 0 0 0 0 0 0 0 0 0 -0
0 0 0 0 0 0 0 0 0 0 0 0 0 0 0 0 0 0 0 0 0 0 0 0 0 0 0 0 0 0 0 0 0 0 0 0 0 0 0 0 -0 -0 -0
0 0 0 0 0 0 0 0 0 0 0 0 0 0 0 0 0 0 0 0 0 0 0 0 0 0 0 0 0 0 0 0 0 0 0 0 0 0 0 0 -0 -0 -0
0 0 0 0 0 0 0 0 0 0 0 0 0 0 0 0 0 0 0 0 0 0 0 0 0 0 0 0 0 0 0 0 0 0 0 0 0 0 0 0 -0 -0 -0
0 0 0 0 0 0 0 0 0 0 0 0 0 0 0 0 0 0 0 0 0 0 0 0 0 0 0 0 0 0 0 0 0 0 0 0 0 0 0 0 -0 -0 -0
0 0 0 0 0 0 0 0 0 0 0 0 0 0 0 0 0 0 0 0 0 0 0 0 0 0 0 0 0 0 0 0 0 0 0 0 0 0 0 0 -0 -0 -0
0 0 0 0 0 0 0 0 0 0 0 0 0 0 0 0 0 0 0 0 0 0 0 0 0 0 0 0 0 0 0 0 0 0 0 0 0 0 0 0 0 -0 -0
0 0 0 0 0 0 0 0 0 0 0 0 0 0 0 0 0 0 0 0 0 0 0 0 0 0 0 0 0 0 0 0 0 0 0 0 0 0 0 0 0 0 -0
0 0 0 0 0 0 0 0 0 0 0 0 0 0 0 0 0 0 0 0 0 0 0 0 0 0 0 0 0 0 0 0 0 0 0 0 0 0 0 0 0 0 0
0 0 0 0 0 0 0 0 0 0 0 0 0 0 0 0 0 0 0 0 0 0 0 0 0 0 0 0 0 0 0 0 0 0 0 0 0 0 0 0 0 0 0
0 0 0 0 0 0 0 0 0 0 0 0 0 0 0 0 0 0 0 0 0 0 0 0 0 0 0 0 0 0 0 0 0 0 0 0 0 0 0 0 0 0 0
0 0 0 0 0 0 0 0 0 0 0 0 0 0 0 0 0 0 0 0 0 0 0 0 0 0 0 0 0 0 0 0 0 0 0 0 0 0 0 0 0 0 0
0 0 0 0 0 0 0 0 0 0 0 0 0 0 0 0 0 0 0 0 0 0 0 0 0 0 0 0 0 0 0 0 0 0 0 0 0 0 0 0 0 0 0
0 0 0 0 0 0 0 0 0 0 0 0 0 0 0 0 0 0 0 0 0 0 0 0 0 0 0 0 0 0 0 0 0 0 0 0 0 0 0 0 0 0 0
0 0 0 0 0 0 0 0 0 0 0 0 0 0 0 0 0 0 0 0 0 0 0 0 0 0 0 0 0 0 0 0 0 0 0 0 0 0 0 0 0 0 0
0 0 0 0 0 0 0 0 0 0 0 0 0 0 0 0 0 0 0 0 0 0 0 0 0 0 0 0 0 0 0 0 0 0 0 0 0 0 0 0 0 0 0
0 0 0 0 0 0 0 0 0 0 0 0 0 0 0 0 0 0 0 0 0 0 0 0 0 0 0 0 0 0 0 0 0 0 0 0 0 0 0 0 0 0 0
0 0 0 0 0 0 0 0 0 0 0 0 0 0 0 0 0 0 0 0 0 0 0 0 0 0 0 0 0 0 0 0 0 0 0 0 0 0 0 0 0 0 0
0 0 0 0 0 0 0 0 0 0 0 0 0 0 0 0 0 0 0 0 0 0 0 0 0 0 0 0 0 0 0 0 0 0 0 0 0 0 0 0 0 0 0
0 0 0 0 0 0 0 0 0 0 0 0 0 0 0 0 0 0 0 0 0 0 0 0 0 0 0 0 0 0 0 0 0 0 0 0 0 0 0 0 0 0 0
0 0 0 0 0 0 0 0 0 0 0 0 0 0 0 0 0 0 0 0 0 0 0 0 0 0 0 0 0 0 0 0 0 0 0 0 0 0 0 0 0 0 0
Wind_Speed_500mb
22 17 18 18 21 22 23 22 24 21 16 9 10 11 5 3 6 10 12 10 12 11 11 14 17 20 23 25 23 19 26 33 22 28 19 6 16 28 41 38 37 44 36
28 23 22 25 26 29 28 28 26 22 22 17 18 16 12 5 7 8 6 6 6 9 9 10 12 12 13 15 24 29 31 35 34 21 18 7 1 15 37 39 39 43 34
39 34 31 31 33 32 31 30 28 24 18 16 19 14 10 8 7 4 2 2 6 7 8 9 8 10 12 17 24 28 30 29 31 35 18 8 10 11 29 41 37 43 30
43 41 37 35 34 32 29 29 27 23 20 19 15 13 11 14 11 9 5 2 3 4 4 4 8 9 13 15 20 23 23 23 23 22 27 25 23 14 14 38 35 37 32
53 49 43 38 37 32 32 29 27 25 23 24 23 23 25 19 15 12 10 4 1 1 1 3 7 8 12 15 19 18 20 23 24 25 22 21 26 27 28 25 34 35 27
55 50 42 44 37 33 34 31 30 27 26 27 26 26 19 18 18 17 12 6 5 3 3 5 8 9 12 14 19 22 23 25 24 24 28 31 32 33 34 33 30 34 28
56 53 53 48 39 34 34 34 32 30 29 26 25 24 24 21 21 19 13 11 8 8 9 11 13 15 16 17 19 20 22 24 24 25 27 25 28 27 29 34 30 29 22
58 55 53 45 41 37 37 36 36 35 32 29 29 27 26 24 23 20 17 14 15 16 16 15 15 15 16 15 14 18 23 23 22 21 22 24 27 28 31 36 37 22 31
61 59 52 46 46 43 41 40 36 36 34 32 30 29 28 28 25 22 20 23 21 19 18 17 14 13 14 16 17 17 18 16 18 20 21 24 28 30 32 35 38 40 36
52 50 50 52 49 44 42 40 38 37 38 39 36 33 31 27 26 27 27 25 24 21 18 15 12 13 15 15 13 12 13 12 16 20 21 23 27 31 34 36 36 39 39
54 56 57 54 50 47 45 46 46 44 42 39 37 36 35 35 31 29 27 28 24 21 17 15 15 13 11 10 7 7 9 10 14 16 18 23 26 31 33 36 36 38 39
54 57 57 57 56 52 50 49 48 46 42 37 37 37 36 35 34 34 32 28 23 19 17 16 14 13 9 5 4 5 7 9 12 15 18 25 28 30 32 34 37 37 39
54 56 56 61 59 56 55 53 53 51 48 46 47 47 43 40 39 35 32 29 25 21 18 16 14 10 7 4 3 4 6 9 12 16 20 24 25 27 30 32 33 36 39
56 58 61 64 64 61 58 59 58 56 53 52 52 49 46 43 41 37 34 29 25 22 20 18 14 11 8 7 5 5 6 8 12 17 19 20 22 25 26 29 31 35 39
60 64 68 69 69 68 67 64 60 59 59 60 57 53 50 47 43 39 35 30 27 25 22 19 16 13 10 10 9 7 7 8 10 13 15 17 19 21 23 27 31 37 41
64 65 70 71 77 79 74 70 69 68 67 66 61 58 55 50 46 42 37 33 31 28 24 21 18 13 12 13 12 10 9 9 9 8 9 9 13 16 21 26 32 37 42
69 69 75 77 81 83 79 78 75 73 74 71 66 62 58 54 49 44 40 37 34 30 26 23 18 15 14 14 14 13 13 12 10 7 3 2 9 15 21 25 29 33 38
70 70 73 77 82 83 82 80 80 80 79 75 70 66 61 56 52 47 44 40 36 32 27 24 20 18 16 17 17 18 17 16 12 8 5 5 11 16 21 26 31 34 38
79 78 81 82 82 86 88 87 87 85 83 81 75 71 65 60 56 52 47 43 39 33 29 26 24 21 19 20 22 23 21 18 15 13 10 11 14 19 25 30 34 37 40
91 91 88 86 84 89 94 96 95 94 92 86 78 71 66 62 58 53 49 44 39 36 31 29 26 24 24 24 26 27 25 23 21 19 17 16 19 24 29 36 39 42 44
93 87 88 93 89 96 101 105 102 103 96 85 79 74 68 62 58 54 50 46 43 38 34 31 29 29 29 29 29 29 29 28 27 25 24 24 25 28 33 37 41 45 51
69 80 88 92 92 99 105 108 108 102 95 88 81 76 70 66 61 57 52 49 45 41 37 35 34 32 32 33 32 33 33 32 32 31 31 30 30 33 37 39 42 46 52
69 76 84 90 94 101 106 110 108 105 98 91 85 77 71 67 61 57 55 52 47 43 40 39 37 35 35 35 36 37 38 38 38 37 37 36 37 40 41 42 45 49 55
76 83 90 96 101 104 106 107 110 105 99 93 86 79 74 70 64 59 56 52 49 46 44 41 39 37 37 37 40 41 43 44 44 44 45 43 45 46 47 47 48 53 59
79 86 95 101 103 104 108 111 108 105 102 93 86 81 76 69 64 60 55 52 47 44 42 39 38 38 38 36 41 44 46 47 48 49 52 51 51 54 53 54 56 59 64
80 86 91 96 98 101 108 110 109 106 100 94 88 82 75 69 64 60 57 54 50 48 44 41 40 38 39 41 46 47 48 51 52 57 59 58 58 61 61 63 65 67 71
Wind_Direction_500mb
207 210 197 193 183 185 201 213 227 234 235 207 179 224 243 273 65 71 71 60 57 55 44 45 48 41 40 36 50 62 48 56 121 117 110 113 37 60 43 62 70 55 31
204 203 202 195 193 191 200 208 221 224 217 201 213 222 211 197 109 102 72 58 21 30 35 48 47 47 41 41 51 52 61 58 67 108 122 82 161 72 36 55 71 62 30
208 204 200 199 200 204 202 213 219 224 216 206 217 210 193 164 158 154 112 36 13 51 48 70 74 60 53 53 61 64 62 62 61 67 84 75 20 54 53 55 74 64 28
209 208 205 205 210 207 206 211 218 219 216 196 193 184 210 224 219 193 198 150 14 21 55 54 65 62 60 61 61 64 64 70 69 67 69 73 50 44 59 59 68 69 38
208 201 207 208 215 210 212 211 215 214 210 202 192 200 211 228 204 199 212 208 195 87 109 112 88 78 74 69 71 70 68 74 78 79 86 77 61 57 49 32 58 72 39
203 203 207 214 214 211 216 212 213 209 208 209 213 214 214 201 202 204 204 186 169 162 161 113 99 91 87 84 81 77 78 78 76 76 76 70 59 45 43 33 48 59 31
197 198 204 211 215 213 217 210 208 207 209 211 213 214 213 211 209 204 200 188 183 165 145 121 109 104 93 90 88 84 81 79 82 79 72 69 64 56 51 47 50 55 32
194 199 208 212 211 214 213 210 205 205 206 205 207 208 209 208 209 209 199 188 169 154 133 123 114 104 99 89 86 89 87 79 74 72 71 69 69 63 58 50 50 66 50
192 202 212 211 211 212 214 212 208 205 205 204 208 211 210 210 207 205 190 175 164 156 142 131 126 118 112 106 97 89 82 74 71 70 70 71 73 68 64 57 51 48 39
195 205 209 208 212 212 213 213 211 211 208 206 208 210 211 203 197 185 178 170 168 159 149 143 138 131 119 110 99 82 75 70 75 76 76 76 73 67 63 58 57 54 46
192 199 206 214 212 210 210 212 211 210 211 209 207 202 194 189 183 183 178 177 171 164 160 158 148 138 128 118 98 82 79 76 79 84 82 79 73 69 63 58 53 48 41
201 211 217 216 213 211 212 212 211 212 214 210 201 194 189 184 184 184 183 178 177 175 173 166 161 155 151 136 102 85 95 98 94 88 83 78 74 68 64 55 49 40 34
208 216 217 215 215 213 213 213 212 210 207 200 194 190 192 191 189 187 186 186 184 183 181 180 178 179 178 173 161 144 124 111 99 92 84 79 73 66 59 51 42 35 27
210 214 218 217 215 216 217 214 209 206 202 197 195 194 193 193 191 191 192 191 191 188 191 193 197 203 208 211 203 183 150 123 109 99 88 78 70 62 50 40 30 25 17
211 214 219 219 216 215 214 211 209 204 200 197 197 195 196 195 194 194 196 196 195 196 200 203 209 218 226 228 220 202 170 146 129 111 92 77 63 47 36 26 20 14 9
221 223 225 222 216 216 214 210 208 203 200 199 198 198 198 197 197 198 199 199 199 201 206 213 221 226 234 236 225 213 186 169 155 134 105 73 48 33 20 14 13 8 4
226 227 230 226 220 217 214 211 208 203 200 200 200 199 199 199 199 201 201 202 203 206 211 219 228 236 238 232 222 221 199 186 179 165 154 25 22 14 6 3 3 1 358
232 235 234 228 222 219 214 211 208 204 202 202 201 200 201 201 202 203 204 204 207 210 216 226 235 239 240 228 229 221 215 206 201 206 236 317 343 347 347 348 349 349 348
248 249 243 231 220 216 212 209 206 204 204 204 202 203 203 203 204 206 206 207 211 215 220 229 238 241 244 234 231 228 231 225 227 238 261 295 319 327 332 335 335 339 340
248 241 231 225 219 215 210 208 205 204 205 206 204 204 205 205 207 207 208 212 214 219 224 231 238 246 244 241 235 238 243 246 247 255 267 282 297 314 325 326 329 330 333
244 236 230 225 222 213 208 207 206 206 206 205 205 206 206 206 208 209 211 213 218 222 228 235 240 245 247 244 238 242 250 255 259 265 273 283 295 307 314 317 321 323 327
238 236 228 221 217 213 208 207 207 206 205 204 205 206 206 206 208 210 212 215 219 225 231 237 242 246 248 247 243 243 250 259 264 270 276 282 291 299 305 309 314 319 321
237 234 226 217 214 213 211 209 207 205 203 203 204 205 206 209 211 212 214 217 221 227 234 240 246 250 251 250 248 248 252 259 265 271 277 282 288 293 297 304 309 314 318
231 226 217 214 212 212 211 211 207 204 203 204 204 204 207 209 210 213 217 222 227 231 237 243 249 254 255 253 251 252 256 262 268 273 277 280 284 289 294 300 306 312 316
226 222 217 215 214 211 208 207 207 205 202 203 203 204 207 210 212 217 222 227 232 238 245 250 255 258 263 264 257 256 261 266 271 275 279 283 285 288 292 298 305 311 314
223 218 214 213 213 210 207 207 207 205 203 201 202 204 207 209 213 218 222 226 230 237 244 249 257 265 265 261 262 262 264 268 272 275 280 284 287 289 295 300 305 308 311
Wind_Speed_850mb
22 17 18 18 21 22 23 22 24 21 16 9 10 11 5 3 6 10 12 10 12 11 11 14 17 20 23 25 23 19 26 33 22 28 19 6 16 28 41 38 37 44 36
28 23 22 25 26 29 28 28 26 22 22 17 18 16 12 5 7 8 6 6 6 9 9 10 12 12 13 15 24 29 31 35 34 21 18 7 1 15 37 39 39 43 34
39 34 31 31 33 32 31 30 28 24 18 16 19 14 10 8 7 4 2 2 6 7 8 9 8 10 12 17 24 28 30 29 31 35 18 8 10 11 29 41 37 43 30
43 41 37 35 34 32 29 29 27 23 20 19 15 13 11 14 11 9 5 2 3 4 4 4 8 9 13 15 20 23 23 23 23 22 27 25 23 14 14 38 35 37 32
53 49 43 38 37 32 32 29 27 25 23 24 23 23 25 19 15 12 10 4 1 1 1 3 7 8 12 15 19 18 20 23 24 25 22 21 26 27 28 25 34 35 27
55 50 42 44 37 33 34 31 30 27 26 27 26 26 19 18 18 17 12 6 5 3 3 5 8 9 12 14 19 22 23 25 24 24 28 31 32 33 34 33 30 34 28
56 53 53 48 39 34 34 34 32 30 29 26 25 24 24 21 21 19 13 11 8 8 9 11 13 15 16 17 19 20 22 24 24 25 27 25 28 27 29 34 30 29 22
58 55 53 45 41 37 37 36 36 35 32 29 29 27 26 24 23 20 17 14 15 16 16 15 15 15 16 15 14 18 23 23 22 21 22 24 27 28 31 36 37 22 31
61 59 52 46 46 43 41 40 36 36 34 32 30 29 28 28 25 22 20 23 21 19 18 17 14 13 14 16 17 17 18 16 18 20 21 24 28 30 32 35 38 40 36
52 50 50 52 49 44 42 40 38 37 38 39 36 33 31 27 26 27 27 25 24 21 18 15 12 13 15 15 13 12 13 12 16 20 21 23 27 31 34 36 36 39 39
54 56 57 54 50 47 45 46 46 44 42 39 37 36 35 35 31 29 27 28 24 21 17 15 15 13 11 10 7 7 9 10 14 16 18 23 26 31 33 36 36 38 39
54 57 57 57 56 52 50 49 48 46 42 37 37 37 36 35 34 34 32 28 23 19 17 16 14 13 9 5 4 5 7 9 12 15 18 25 28 30 32 34 37 37 39
54 56 56 61 59 56 55 53 53 51 48 46 47 47 43 40 39 35 32 29 25 21 18 16 14 10 7 4 3 4 6 9 12 16 20 24 25 27 30 32 33 36 39
56 58 61 64 64 61 58 59 58 56 53 52 52 49 46 43 41 37 34 29 25 22 20 18 14 11 8 7 5 5 6 8 12 17 19 20 22 25 26 29 31 35 39
60 64 68 69 69 68 67 64 60 59 59 60 57 53 50 47 43 39 35 30 27 25 22 19 16 13 10 10 9 7 7 8 10 13 15 17 19 21 23 27 31 37 41
64 65 70 71 77 79 74 70 69 68 67 66 61 58 55 50 46 42 37 33 31 28 24 21 18 13 12 13 12 10 9 9 9 8 9 9 13 16 21 26 32 37 42
69 69 75 77 81 83 79 78 75 73 74 71 66 62 58 54 49 44 40 37 34 30 26 23 18 15 14 14 14 13 13 12 10 7 3 2 9 15 21 25 29 33 38
70 70 73 77 82 83 82 80 80 80 79 75 70 66 61 56 52 47 44 40 36 32 27 24 20 18 16 17 17 18 17 16 12 8 5 5 11 16 21 26 31 34 38
79 78 81 82 82 86 88 87 87 85 83 81 75 71 65 60 56 52 47 43 39 33 29 26 24 21 19 20 22 23 21 18 15 13 10 11 14 19 25 30 34 37 40
91 91 88 86 84 89 94 96 95 94 92 86 78 71 66 62 58 53 49 44 39 36 31 29 26 24 24 24 26 27 25 23 21 19 17 16 19 24 29 36 39 42 44
93 87 88 93 89 96 101 105 102 103 96 85 79 74 68 62 58 54 50 46 43 38 34 31 29 29 29 29 29 29 29 28 27 25 24 24 25 28 33 37 41 45 51
69 80 88 92 92 99 105 108 108 102 95 88 81 76 70 66 61 57 52 49 45 41 37 35 34 32 32 33 32 33 33 32 32 31 31 30 30 33 37 39 42 46 52
69 76 84 90 94 101 106 110 108 105 98 91 85 77 71 67 61 57 55 52 47 43 40 39 37 35 35 35 36 37 38 38 38 37 37 36 37 40 41 42 45 49 55
76 83 90 96 101 104 106 107 110 105 99 93 86 79 74 70 64 59 56 52 49 46 44 41 39 37 37 37 40 41 43 44 44 44 45 43 45 46 47 47 48 53 59
79 86 95 101 103 104 108 111 108 105 102 93 86 81 76 69 64 60 55 52 47 44 42 39 38 38 38 36 41 44 46 47 48 49 52 51 51 54 53 54 56 59 64
80 86 91 96 98 101 108 110 109 106 100 94 88 82 75 69 64 60 57 54 50 48 44 41 40 38 39 41 46 47 48 51 52 57 59 58 58 61 61 63 65 67 71
Wind_Direction_850mb
207 210 197 193 183 185 201 213 227 234 235 207 179 224 243 273 65 71 71 60 57 55 44 45 48 41 40 36 50 62 48 56 121 117 110 113 37 60 43 62 70 55 31
204 203 202 195 193 191 200 208 221 224 217 201 213 222 211 197 109 102 72 58 21 30 35 48 47 47 41 41 51 52 61 58 67 108 122 82 161 72 36 55 71 62 30
208 204 200 199 200 204 202 213 219 224 216 206 217 210 193 164 158 154 112 36 13 51 48 70 74 60 53 53 61 64 62 62 61 67 84 75 20 54 53 55 74 64 28
209 208 205 205 210 207 206 211 218 219 216 196 193 184 210 224 219 193 198 150 14 21 55 54 65 62 60 61 61 64 64 70 69 67 69 73 50 44 59 59 68 69 38
208 201 207 208 215 210 212 211 215 214 210 202 192 200 211 228 204 199 212 208 195 87 109 112 88 78 74 69 71 70 68 74 78 79 86 77 61 57 49 32 58 72 39
203 203 207 214 214 211 216 212 213 209 208 209 213 214 214 201 202 204 204 186 169 162 161 113 99 91 87 84 81 77 78 78 76 76 76 70 59 45 43 33 48 59 31
197 198 204 211 215 213 217 210 208 207 209 211 213 214 213 211 209 204 200 188 183 165 145 121 109 104 93 90 88 84 81 79 82 79 72 69 64 56 51 47 50 55 32
194 199 208 212 211 214 213 210 205 205 206 205 207 208 209 208 209 209 199 188 169 154 133 123 114 104 99 89 86 89 87 79 74 72 71 69 69 63 58 50 50 66 50
192 202 212 211 211 212 214 212 208 205 205 204 208 211 210 210 207 205 190 175 164 156 142 131 126 118 112 106 97 89 82 74 71 70 70 71 73 68 64 57 51 48 39
195 205 209 208 212 212 213 213 211 211 208 206 208 210 211 203 197 185 178 170 168 159 149 143 138 131 119 110 99 82 75 70 75 76 76 76 73 67 63 58 57 54 46
192 199 206 214 212 210 210 212 211 210 211 209 207 202 194 189 183 183 178 177 171 164 160 158 148 138 128 118 98 82 79 76 79 84 82 79 73 69 63 58 53 48 41
201 211 217 216 213 211 212 212 211 212 214 210 201 194 189 184 184 184 183 178 177 175 173 166 161 155 151 136 102 85 95 98 94 88 83 78 74 68 64 55 49 40 34
208 216 217 215 215 213 213 213 212 210 207 200 194 190 192 191 189 187 186 186 184 183 181 180 178 179 178 173 161 144 124 111 99 92 84 79 73 66 59 51 42 35 27
210 214 218 217 215 216 217 214 209 206 202 197 195 194 193 193 191 191 192 191 191 188 191 193 197 203 208 211 203 183 150 123 109 99 88 78 70 62 50 40 30 25 17
211 214 219 219 216 215 214 211 209 204 200 197 197 195 196 195 194 194 196 196 195 196 200 203 209 218 226 228 220 202 170 146 129 111 92 77 63 47 36 26 20 14 9
221 223 225 222 216 216 214 210 208 203 200 199 198 198 198 197 197 198 199 199 199 201 206 213 221 226 234 236 225 213 186 169 155 134 105 73 48 33 20 14 13 8 4
226 227 230 226 220 217 214 211 208 203 200 200 200 199 199 199 199 201 201 202 203 206 211 219 228 236 238 232 222 221 199 186 179 165 154 25 22 14 6 3 3 1 358
232 235 234 228 222 219 214 211 208 204 202 202 201 200 201 201 202 203 204 204 207 210 216 226 235 239 240 228 229 221 215 206 201 206 236 317 343 347 347 348 349 349 348
248 249 243 231 220 216 212 209 206 204 204 204 202 203 203 203 204 206 206 207 211 215 220 229 238 241 244 234 231 228 231 225 227 238 261 295 319 327 332 335 335 339 340
248 241 231 225 219 215 210 208 205 204 205 206 204 204 205 205 207 207 208 212 214 219 224 231 238 246 244 241 235 238 243 246 247 255 267 282 297 314 325 326 329 330 333
244 236 230 225 222 213 208 207 206 206 206 205 205 206 206 206 208 209 211 213 218 222 228 235 240 245 247 244 238 242 250 255 259 265 273 283 295 307 314 317 321 323 327
238 236 228 221 217 213 208 207 207 206 205 204 205 206 206 206 208 210 212 215 219 225 231 237 242 246 248 247 243 243 250 259 264 270 276 282 291 299 305 309 314 319 321
237 234 226 217 214 213 211 209 207 205 203 203 204 205 206 209 211 212 214 217 221 227 234 240 246 250 251 250 248 248 252 259 265 271 277 282 288 293 297 304 309 314 318
231 226 217 214 212 212 211 211 207 204 203 204 204 204 207 209 210 213 217 222 227 231 237 243 249 254 255 253 251 252 256 262 268 273 277 280 284 289 294 300 306 312 316
226 222 217 215 214 211 208 207 207 205 202 203 203 204 207 210 212 217 222 227 232 238 245 250 255 258 263 264 257 256 261 266 271 275 279 283 285 288 292 298 305 311 314
223 218 214 213 213 210 207 207 207 205 203 201 202 204 207 209 213 218 222 226 230 237 244 249 257 265 265 261 262 262 264 268 272 275 280 284 287 289 295 300 305 308 311